全球卫星定位系统 GPS 70星 (NAVSTAR 70 (USA 251))

导读 | 豆包AI

NAVSTAR 70 (USA 251)是美国于2014年5月17日发射的GPS全球定位系统卫星,隶属于第二代GPS IIF系列,旨在替代老旧卫星,提升全球定位、导航与授时服务精度与可靠性。它运行于中地球轨道,为全球军民用户提供稳定的位置服务,增强GPS系统覆盖能力与定位精度,是美国GPS空间星座现代化升级的重要组成部分,至今仍在轨服役。

基本信息
目录编号:
39741
目录名称:
NAVSTAR 70 (USA 251)
国际标识:
2014-026A
轨道中心:
EARTH
卫星名称:
GPS 70星
卫星全名:
全球卫星定位系统 GPS 70星 (NAVSTAR 70 (USA 251))
卫星状态:
在轨 (已飞行4319 天)
发射日期:
2014-05-17 UTC
国别 :
美国 (US)
星等 :
--
轨道信息
数据来源 国际轨道数据 AOE轨道数据
星历时间 2026-03-13T13:37:10+0800
21小时前
查看轨道信息
2026-03-12T09:00:00+0800
2天前
查看轨道信息
半长轴 26559.951km 26559.951km
偏心率 0.0039756 0.0039711
轨道倾角 56.542° 56.543°
近地点辐角 325.014° 325.350°
升交点赤经 335.256° 335.303°
平近点角 34.766° 253.393°
近地点 20076.222km 20076.341km
远地点 20287.406km 20287.287km
周期 717.961分钟 717.961分钟
每日圈数 2.005681 2.005681
详细信息
平衡模式:
三轴稳定
覆盖范围:
全球
运营商:
美国太空军
运营商所在国:
美国
制造商(研发单位):
波音公司
制造商所在国:
美国
使用方式:
暂无
工作目标:
提供军用及民用全球定位与导航服务。
预期寿命:
12年
卫星简介
全球定位系统(英语:Global Positioning System,通常简称GPS),又称全球卫星定位系统,是美国国防部研制,美国太空军运营与维护的中地球轨道卫星导航系统。它可以为地球表面约98%的地区提供准确的定位、测速和高精度的标准时间。全球定位系统可满足位于全球地面任何一处或近地空间的军事用户连续且精确地确定三维位置、三维运动和时间的需求。该系统包括太空中的31颗GPS人造卫星.该卫星仍在工作。
2D轨道图
3D轨道图
轨道高度分析图
轨道倾角分析图
轨道综合分析图
查看轨道综合分析图